Simultaneous Nadir Overpasses (SNOs) Predictions

Prediction of SNOs between FY3D and TERRA Satellite Orbit:

Table of predicted SNOs for the next 14.0 days since TLE Epoch: 11/19/2022
Index Date (FY3D) Time (FY3D) Lat,Lon (FY3D) SZA (FY3D ) Date (TERRA) Time (TERRA) Lat,Lon (TERRA) SZA (TERRA ) Distance(km) Time Diff (sec)
1 11/20/2022 07:35:36 72.44, 65.81 92.08 11/20/2022 07:36:21 72.43, 65.86 92.07 2.31 45
2 11/20/2022 08:26:18 -72.32,-126.64 88.04 11/20/2022 08:25:48 -72.30,-126.72 88.06 3.43 30
3 11/22/2022 19:39:57 -72.74, 64.14 87.09 11/22/2022 19:41:08 -72.61, 64.97 87.20 31.26 71
4 11/22/2022 20:30:37 72.37,-127.78 92.56 11/22/2022 20:30:34 72.35,-127.85 92.54 3.19 3
5 11/22/2022 21:21:14 -72.05, 40.17 87.75 11/22/2022 21:20:02 -72.12, 39.39 87.70 27.68 72
6 11/25/2022 08:34:52 -72.43,-128.94 86.88 11/25/2022 08:35:22 -72.41,-128.96 86.90 1.57 30
7 11/25/2022 09:25:37 72.31, 38.61 93.01 11/25/2022 09:24:45 72.31, 38.52 93.01 3.29 52
8 11/27/2022 20:39:11 72.49,-130.11 93.65 11/27/2022 20:40:07 72.48,-130.04 93.64 2.39 56
9 11/27/2022 21:29:53 -72.37, 37.45 86.47 11/27/2022 21:29:34 -72.36, 37.38 86.48 2.42 19
10 11/30/2022 08:43:39 -73.16,-132.56 85.28 11/30/2022 08:44:46 -73.05,-130.18 85.35 77.75 67
11 11/30/2022 09:34:12 72.44, 36.26 94.03 11/30/2022 09:34:19 72.42, 36.27 94.00 2.44 7
12 11/30/2022 10:24:55 -72.36,-156.27 86.05 11/30/2022 10:23:45 -72.35,-156.20 86.07 2.94 70
13 12/02/2022 21:38:28 -72.51, 35.09 85.53 12/02/2022 21:39:07 -72.49, 35.19 85.54 3.60 39
14 12/02/2022 22:29:13 72.39,-157.37 94.37 12/02/2022 22:28:30 72.39,-157.34 94.36 1.29 43



Historial Predications of SNOs between FY3D and TERRA
